Regional Weather Roundup
Issued by NWS

Home | Current Version | Previous Version | Text Only | Print | Product List | Glossary On
Versions: 1 2 3 4 5 6 7 8 9 10 11 12 13 14 15 16 17 18 19 20 21 22 23 24 25 26 27 28 29 30 31 32 33 34 35 36 37 38 39 40 41 42 43 44 45 46 47 48 49 50
000
ASUS45 KSLC 280610
RWRUT

UTAH REGIONAL WEATHER ROUNDUP
NATIONAL WEATHER SERVICE SALT LAKE CITY UT
1200 AM MDT THU MAY 28 2015

UTZ001>011-023>025-280700-

NORTHERN UTAH

CITY           SKY/WX    TMP DP  RH WIND       PRES   REMARKS
BRIGHAM CITY   MOCLDY    56  48  74 CALM      30.11R
HILL AFB       MOCLDY    52  49  89 SE6       30.12R
LOGAN          CLEAR     54  46  74 S9        30.10R
OGDEN          MOCLDY    54  47  77 SE7       30.11R
PROVO AIRPORT  MOCLDY    54  46  76 NE6       30.13R
SALT LAKE CITY MOCLDY    55  50  83 S7        30.10S
VERNAL         CLOUDY    53  48  83 CALM      30.14F
WENDOVER       MOCLDY    57  46  67 N14       30.11R
HEBER CITY     MOCLDY    50  45  81 CALM      30.15S
WEST JORDAN    CLEAR     54  50  87 SW6       30.13R

$$

UTZ012>022-026-027-280700-

SOUTHERN/CENTRAL UTAH

CITY           SKY/WX    TMP DP  RH WIND       PRES   REMARKS
BLANDING       PTCLDY    55  40  56 NE7       30.17R
BRYCE CANYON   MOCLDY    47  40  76 N12       30.26S
CEDAR CITY     MOCLDY    52  45  77 N7        30.16F
DELTA          PTCLDY    51  44  77 S6        30.14S
HANKSVILLE     MOCLDY    59  41  51 NW6       30.12S
MILFORD        CLOUDY    51  47  86 W9        30.13F
MOAB/CYNLANDS  PTCLDY    59  43  55 S7        30.08F
PRICE          CLOUDY    51  45  79 NE6       30.14F
ST GEORGE      MOCLDY    70  43  37 NE12      30.01R

$$

REGIONAL REPORTS     COLORADO/ARIZONA

CITY           SKY/WX    TMP DP  RH WIND       PRES   REMARKS
CRAIG, CO      CLOUDY    52  42  69 NW7       30.18F
GRAND JUNCTION CLOUDY    54  49  83 W6        30.13F
RIFLE          MOCLDY    52  46  80 S7        30.18S
MONTROSE       PTCLDY    55  42  61 NE5       30.16F
CORTEZ         CLEAR     50  42  74 E5        30.11S
PAGE, AZ       CLEAR     71  34  25 W6        30.02R
GRAND CANYON   CLEAR     46  35  65 CALM      30.19S
KINGMAN        CLEAR     68  15  13 S13       30.00S
FLAGSTAFF      PTCLDY    44  29  55 CALM      30.23R

$$

REGIONAL REPORTS    NEVADA/IDAHO/WYOMING

CITY           SKY/WX    TMP DP  RH WIND       PRES   REMARKS
LAS VEGAS, NV  PTCLDY    83  25  12 S12       29.84R
ELY            CLEAR     47  42  83 S7        30.16R
ELKO           PTCLDY    55  46  71 E8        30.06R
POCATELLO, ID  CLOUDY    52  47  83 E12       30.08S
BURLEY         PTCLDY    53  45  74 SW13      30.04R
EVANSTON, WY   MOCLDY    42  39  89 S8        30.19S
ROCK SPRINGS   CLOUDY    49  41  74 SW7       30.15R
KEMMERER       CLOUDY    45  37  76 W10       30.18S

$$


USA.gov is the U.S. government's official web portal to all federal, state and local government web resources and services.